"read_dt","SO2 (ppb)","flags","PMT voltage (V)","lamp voltage (V)","lamp intensity (Hz)","internal temp (C)","react chamber temp (C)","sample flow (l/min)","pres (mmHg)","SO2 bkg (ppb)","SO2 coefficient"
2013-12-07 00:00:00,6226E-4,5C000000,-0724,0974,10752,028.5,045.4,0.394,745.5,01.17,0.508
2013-12-07 00:01:00,7209E-4,5C000000,-0724,0973,10831,028.5,045.4,0.394,745.2,01.17,0.508
2013-12-07 00:02:00,7635E-4,5C000000,-0724,0974,10803,028.5,045.4,0.394,745.3,01.17,0.508
2013-12-07 00:03:00,7405E-4,5C000000,-0724,0973,10905,028.5,045.4,0.394,745.4,01.17,0.508
2013-12-07 00:04:00,6634E-4,5C000000,-0724,0972,10828,028.5,045.4,0.394,745.5,01.17,0.508
2013-12-07 00:05:00,5569E-4,5C000000,-0724,0973,10785,028.5,045.4,0.394,745.3,01.17,0.508
2013-12-07 00:06:00,5458E-4,5C000000,-0724,0974,10842,028.5,045.4,0.394,745.4,01.17,0.508
2013-12-07 00:07:00,6003E-4,5C000000,-0724,0974,10822,028.5,045.4,0.394,745.5,01.17,0.508
2013-12-07 00:08:00,6594E-4,5C000000,-0724,0973,10808,028.5,045.4,0.394,745.3,01.17,0.508
2013-12-07 00:09:00,7049E-4,5C000000,-0724,0974,10741,028.5,045.4,0.394,745.4,01.17,0.508
2013-12-07 00:10:00,7434E-4,5C000000,-0724,0974,10864,028.5,045.4,0.394,745.5,01.17,0.508
2013-12-07 00:11:00,6888E-4,5C000000,-0724,0973,10767,028.5,045.4,0.394,745.5,01.17,0.508
2013-12-07 00:12:00,7665E-4,5C000000,-0724,0974,10840,028.5,045.4,0.395,745.5,01.17,0.508
2013-12-07 00:13:00,7368E-4,5C000000,-0724,0973,10870,028.4,045.4,0.394,745.4,01.17,0.508
2013-12-07 00:14:00,7147E-4,5C000000,-0724,0973,10809,028.4,045.4,0.394,745.4,01.17,0.508
2013-12-07 00:15:00,7832E-4,5C000000,-0724,0973,10865,028.4,045.4,0.394,745.4,01.17,0.508
2013-12-07 00:16:00,8960E-4,5C000000,-0724,0974,10844,028.4,045.4,0.394,745.2,01.17,0.508
2013-12-07 00:17:00,8137E-4,5C000000,-0724,0974,10632,028.4,045.4,0.394,745.3,01.17,0.508
2013-12-07 00:18:00,7032E-4,5C000000,-0724,0973,10759,028.4,045.4,0.394,745.4,01.17,0.508
2013-12-07 00:19:00,8267E-4,5C000000,-0724,0973,10911,028.5,045.4,0.394,745.2,01.17,0.508
2013-12-07 00:20:00,7365E-4,5C000000,-0724,0973,10843,028.4,045.4,0.394,745.3,01.17,0.508
2013-12-07 00:21:00,8557E-4,5C000000,-0724,0973,10697,028.4,045.4,0.394,745.4,01.17,0.508
2013-12-07 00:22:00,8131E-4,5C000000,-0724,0974,10751,028.5,045.4,0.394,745.4,01.17,0.508
2013-12-07 00:23:00,8658E-4,5C000000,-0724,0974,10844,028.4,045.4,0.394,745.4,01.17,0.508
2013-12-07 00:24:00,6000E-4,5C000000,-0724,0973,10780,028.5,045.4,0.394,745.4,01.17,0.508
2013-12-07 00:25:00,6725E-4,5C000000,-0724,0974,10813,028.5,045.4,0.394,745.4,01.17,0.508
2013-12-07 00:26:00,6565E-4,5C000000,-0724,0973,10905,028.5,045.4,0.394,745.4,01.17,0.508
2013-12-07 00:27:00,6814E-4,5C000000,-0724,0974,10769,028.5,045.4,0.394,745.4,01.17,0.508
2013-12-07 00:28:00,6102E-4,5C000000,-0724,0974,10738,028.4,045.3,0.394,745.4,01.17,0.508
2013-12-07 00:29:00,7756E-4,5C000000,-0724,0973,10876,028.5,045.4,0.394,745.3,01.17,0.508
2013-12-07 00:30:00,6805E-4,5C000000,-0724,0973,10906,028.5,045.4,0.394,745.1,01.17,0.508
2013-12-07 00:31:00,7326E-4,5C000000,-0724,0975,10849,028.5,045.4,0.394,745.2,01.17,0.508
2013-12-07 00:32:00,7088E-4,5C000000,-0724,0974,10757,028.4,045.4,0.394,745.3,01.17,0.508
2013-12-07 00:33:00,6998E-4,5C000000,-0724,0974,10768,028.5,045.4,0.394,745.1,01.17,0.508
2013-12-07 00:34:00,7601E-4,5C000000,-0724,0974,10847,028.4,045.4,0.394,745.2,01.17,0.508
2013-12-07 00:35:00,7801E-4,5C000000,-0724,0974,10845,028.4,045.4,0.394,745.3,01.17,0.508
2013-12-07 00:36:00,8193E-4,5C000000,-0724,0974,10872,028.4,045.4,0.394,745.3,01.17,0.508
2013-12-07 00:37:00,8046E-4,5C000000,-0724,0973,10746,028.4,045.4,0.394,745.2,01.17,0.508
2013-12-07 00:38:00,8940E-4,5C000000,-0724,0975,10686,028.4,045.4,0.394,745.3,01.17,0.508
2013-12-07 00:39:00,7926E-4,5C000000,-0724,0974,10785,028.4,045.4,0.394,745.3,01.17,0.508
2013-12-07 00:40:00,8723E-4,5C000000,-0724,0973,10670,028.4,045.4,0.394,745.3,01.17,0.508
2013-12-07 00:41:00,8801E-4,5C000000,-0724,0973,10865,028.4,045.4,0.394,745.3,01.17,0.508
2013-12-07 00:42:00,8227E-4,5C000000,-0724,0974,10810,028.4,045.4,0.394,745.3,01.17,0.508
2013-12-07 00:43:00,7854E-4,5C000000,-0724,0974,10820,028.4,045.4,0.395,745.3,01.17,0.508
2013-12-07 00:44:00,8240E-4,5C000000,-0724,0973,10872,028.4,045.4,0.394,745.3,01.17,0.508
2013-12-07 00:45:00,7940E-4,5C000000,-0724,0974,10812,028.4,045.4,0.394,745.1,01.17,0.508
2013-12-07 00:46:00,8023E-4,5C000000,-0724,0973,10866,028.4,045.4,0.394,745.2,01.17,0.508
2013-12-07 00:47:00,7888E-4,5C000000,-0724,0973,10872,028.4,045.4,0.394,745.3,01.17,0.508
2013-12-07 00:48:00,9164E-4,5C000000,-0724,0972,10917,028.4,045.4,0.394,745.3,01.17,0.508
2013-12-07 00:49:00,6247E-4,5C000000,-0724,0973,10837,028.4,045.4,0.394,745.1,01.17,0.508
2013-12-07 00:50:00,8204E-4,5C000000,-0724,0973,10804,028.4,045.4,0.394,745.3,01.17,0.508
2013-12-07 00:51:00,9156E-4,5C000000,-0724,0973,10854,028.4,045.4,0.394,745.3,01.17,0.508
2013-12-07 00:52:00,6549E-4,5C000000,-0724,0974,10796,028.4,045.4,0.394,745.3,01.17,0.508
2013-12-07 00:53:00,8075E-4,5C000000,-0724,0973,10894,028.4,045.4,0.395,745.3,01.17,0.508
2013-12-07 00:54:00,7469E-4,5C000000,-0724,0974,10691,028.4,045.4,0.394,745.3,01.17,0.508
2013-12-07 00:55:00,6769E-4,5C000000,-0724,0974,10798,028.4,045.4,0.394,745.3,01.17,0.508
2013-12-07 00:56:00,8188E-4,5C000000,-0724,0973,10833,028.4,045.3,0.394,745.3,01.17,0.508
2013-12-07 00:57:00,7233E-4,5C000000,-0724,0973,10731,028.4,045.4,0.395,745.2,01.17,0.508
2013-12-07 00:58:00,8800E-4,5C000000,-0724,0974,10856,028.4,045.4,0.394,745.2,01.17,0.508
2013-12-07 00:59:00,8400E-4,5C000000,-0724,0974,10848,028.4,045.4,0.394,745.1,01.17,0.508
2013-12-07 01:00:00,7879E-4,5C000000,-0724,0974,10852,028.4,045.4,0.395,745.2,01.17,0.508
2013-12-07 01:01:00,8889E-4,5C000000,-0724,0973,10813,028.4,045.4,0.394,745.3,01.17,0.508
2013-12-07 01:02:00,8336E-4,5C000000,-0724,0974,10625,028.4,045.4,0.394,745.1,01.17,0.508
2013-12-07 01:03:00,7734E-4,5C000000,-0724,0973,10786,028.4,045.4,0.394,745.2,01.17,0.508
2013-12-07 01:04:00,8841E-4,5C000000,-0724,0974,10700,028.4,045.4,0.394,745.3,01.17,0.508
2013-12-07 01:05:00,7510E-4,5C000000,-0724,0973,10794,028.4,045.4,0.394,745.2,01.17,0.508
2013-12-07 01:06:00,8448E-4,5C000000,-0724,0973,10663,028.4,045.4,0.394,745.3,01.17,0.508
2013-12-07 01:07:00,8019E-4,5C000000,-0724,0973,10817,028.4,045.4,0.395,745.3,01.17,0.508
2013-12-07 01:08:00,7593E-4,5C000000,-0724,0973,10768,028.4,045.4,0.394,745.3,01.17,0.508
2013-12-07 01:09:00,7330E-4,5C000000,-0724,0974,10719,028.4,045.4,0.394,745.3,01.17,0.508
2013-12-07 01:10:00,8353E-4,5C000000,-0724,0974,10763,028.4,045.4,0.395,745.3,01.17,0.508
2013-12-07 01:11:00,7644E-4,5C000000,-0724,0974,10875,028.4,045.4,0.394,745.3,01.17,0.508
2013-12-07 01:12:00,7870E-4,5C000000,-0724,0973,10805,028.4,045.4,0.394,745.3,01.17,0.508
2013-12-07 01:13:00,6185E-4,5C000000,-0724,0974,10749,028.4,045.4,0.394,745.1,01.17,0.508
2013-12-07 01:14:00,6740E-4,5C000000,-0724,0973,10633,028.4,045.4,0.395,745.2,01.17,0.508
2013-12-07 01:15:00,7229E-4,5C000000,-0724,0973,10891,028.4,045.4,0.394,745.3,01.17,0.508
2013-12-07 01:16:00,7421E-4,5C000000,-0724,0973,10763,028.4,045.4,0.394,745.2,01.17,0.508
2013-12-07 01:17:00,6966E-4,5C000000,-0724,0973,10719,028.4,045.4,0.394,745.2,01.17,0.508
2013-12-07 01:18:00,7514E-4,5C000000,-0724,0974,10853,028.4,045.4,0.394,745.3,01.17,0.508
2013-12-07 01:19:00,6890E-4,5C000000,-0724,0972,10713,028.4,045.3,0.394,745.3,01.17,0.508
2013-12-07 01:20:00,8048E-4,5C000000,-0724,0973,10708,028.4,045.3,0.394,745.3,01.17,0.508
2013-12-07 01:21:00,6573E-4,5C000000,-0724,0972,10781,028.4,045.4,0.395,745.3,01.17,0.508
2013-12-07 01:22:00,6824E-4,5C000000,-0724,0973,10845,028.4,045.4,0.394,745.3,01.17,0.508
2013-12-07 01:23:00,7501E-4,5C000000,-0724,0973,10762,028.4,045.4,0.394,745.3,01.17,0.508
2013-12-07 01:24:00,7448E-4,5C000000,-0724,0973,10938,028.4,045.4,0.395,745.3,01.17,0.508
2013-12-07 01:25:00,6872E-4,5C000000,-0724,0973,10868,028.4,045.4,0.394,745.3,01.17,0.508
2013-12-07 01:26:00,7183E-4,5C000000,-0724,0973,10789,028.4,045.4,0.394,745.1,01.17,0.508
2013-12-07 01:27:00,7654E-4,5C000000,-0724,0974,10729,028.4,045.3,0.394,745.2,01.17,0.508
2013-12-07 01:28:00,6406E-4,5C000000,-0724,0972,10826,028.4,045.3,0.395,745.3,01.17,0.508
2013-12-07 01:29:00,7047E-4,5C000000,-0724,0973,10757,028.4,045.4,0.394,745.2,01.17,0.508
2013-12-07 01:30:00,6047E-4,5C000000,-0724,0973,10702,028.4,045.4,0.394,745.1,01.17,0.508
2013-12-07 01:31:00,5894E-4,5C000000,-0724,0973,10875,028.4,045.4,0.395,745.2,01.17,0.508
2013-12-07 01:32:00,6343E-4,5C000000,-0724,0973,10886,028.4,045.4,0.394,745.2,01.17,0.508
2013-12-07 01:33:00,6369E-4,5C000000,-0724,0973,10641,028.4,045.4,0.394,745.2,01.17,0.508
2013-12-07 01:34:00,6900E-4,5C000000,-0724,0974,10741,028.4,045.4,0.394,745.2,01.17,0.508
2013-12-07 01:35:00,6450E-4,5C000000,-0724,0972,10795,028.4,045.3,0.394,745.2,01.17,0.508
2013-12-07 01:36:00,5543E-4,5C000000,-0724,0974,10818,028.4,045.3,0.394,745.2,01.17,0.508
2013-12-07 01:37:00,6584E-4,5C000000,-0724,0974,10930,028.4,045.3,0.394,745.2,01.17,0.508
2013-12-07 01:38:00,7427E-4,5C000000,-0724,0973,10781,028.3,045.4,0.395,745.2,01.17,0.508
2013-12-07 01:39:00,4892E-4,5C000000,-0724,0974,10766,028.4,045.3,0.394,745.2,01.17,0.508
2013-12-07 01:40:00,6295E-4,5C000000,-0724,0973,10711,028.4,045.4,0.394,745.0,01.17,0.508
2013-12-07 01:41:00,6834E-4,5C000000,-0724,0973,10764,028.3,045.3,0.395,745.2,01.17,0.508
2013-12-07 01:42:00,6006E-4,5C000000,-0724,0974,10836,028.3,045.4,0.394,745.2,01.17,0.508
2013-12-07 01:43:00,7158E-4,5C000000,-0724,0974,10665,028.4,045.4,0.394,745.0,01.17,0.508
2013-12-07 01:44:00,5536E-4,5C000000,-0724,0974,10700,028.3,045.4,0.394,745.0,01.17,0.508
2013-12-07 01:45:00,6037E-4,5C000000,-0724,0973,10701,028.4,045.4,0.394,745.1,01.17,0.508
2013-12-07 01:46:00,5644E-4,5C000000,-0724,0973,10826,028.4,045.4,0.394,745.0,01.17,0.508
2013-12-07 01:47:00,6720E-4,5C000000,-0724,0973,10837,028.4,045.4,0.394,745.0,01.17,0.508
2013-12-07 01:48:00,6806E-4,5C000000,-0724,0973,10873,028.4,045.4,0.395,745.1,01.17,0.508
2013-12-07 01:49:00,7009E-4,5C000000,-0724,0974,10789,028.4,045.4,0.394,745.1,01.17,0.508
2013-12-07 01:50:00,5726E-4,5C000000,-0724,0973,10729,028.4,045.4,0.394,745.1,01.17,0.508
2013-12-07 01:51:00,6168E-4,5C000000,-0724,0973,10866,028.4,045.4,0.395,745.1,01.17,0.508
2013-12-07 01:52:00,6673E-4,5C000000,-0724,0973,10689,028.4,045.3,0.394,745.1,01.17,0.508
2013-12-07 01:53:00,6787E-4,5C000000,-0724,0973,10808,028.3,045.3,0.394,745.1,01.17,0.508
2013-12-07 01:54:00,7971E-4,5C000000,-0724,0973,10807,028.4,045.4,0.394,745.1,01.17,0.508
2013-12-07 01:55:00,7783E-4,5C000000,-0724,0974,10824,028.4,045.4,0.394,744.9,01.17,0.508
2013-12-07 01:56:00,6383E-4,5C000000,-0724,0973,10668,028.4,045.4,0.394,745.0,01.17,0.508
2013-12-07 01:57:00,7004E-4,5C000000,-0724,0973,10749,028.4,045.4,0.395,745.1,01.17,0.508
2013-12-07 01:58:00,7714E-4,5C000000,-0724,0973,10758,028.4,045.3,0.394,744.9,01.17,0.508
2013-12-07 01:59:00,7036E-4,5C000000,-0724,0973,10719,028.3,045.4,0.394,745.0,01.17,0.508
2013-12-07 02:00:00,6837E-4,5C000000,-0724,0974,10873,028.3,045.3,0.395,745.1,01.17,0.508
2013-12-07 02:01:00,6830E-4,5C000000,-0724,0974,10684,028.4,045.4,0.394,744.9,01.17,0.508
2013-12-07 02:02:00,6589E-4,5C000000,-0724,0973,10812,028.4,045.4,0.394,745.0,01.17,0.508
2013-12-07 02:03:00,7048E-4,5C000000,-0724,0974,10682,028.4,045.4,0.394,745.0,01.17,0.508
2013-12-07 02:04:00,6668E-4,5C000000,-0724,0974,10831,028.4,045.4,0.394,745.0,01.17,0.508
2013-12-07 02:05:00,6903E-4,5C000000,-0724,0974,10950,028.3,045.4,0.394,745.0,01.17,0.508
2013-12-07 02:06:00,6682E-4,5C000000,-0724,0973,10802,028.3,045.4,0.394,745.0,01.17,0.508
2013-12-07 02:07:00,7201E-4,5C000000,-0724,0974,10753,028.3,045.4,0.395,745.0,01.17,0.508
2013-12-07 02:08:00,6722E-4,5C000000,-0724,0972,10834,028.3,045.4,0.394,745.0,01.17,0.508
2013-12-07 02:09:00,5794E-4,5C000000,-0724,0973,10623,028.3,045.4,0.394,744.8,01.17,0.508
2013-12-07 02:10:00,6416E-4,5C000000,-0724,0974,10850,028.3,045.3,0.394,744.8,01.17,0.508
2013-12-07 02:11:00,5905E-4,5C000000,-0724,0973,10735,028.3,045.4,0.394,744.9,01.17,0.508
2013-12-07 02:12:00,7333E-4,5C000000,-0724,0973,10668,028.3,045.4,0.394,745.0,01.17,0.508
2013-12-07 02:13:00,5739E-4,5C000000,-0724,0974,10829,028.3,045.4,0.395,744.8,01.17,0.508
2013-12-07 02:14:00,6835E-4,5C000000,-0724,0972,10779,028.3,045.4,0.394,744.9,01.17,0.508
2013-12-07 02:15:00,5975E-4,5C000000,-0724,0973,10763,028.3,045.4,0.394,744.9,01.17,0.508
2013-12-07 02:16:00,5320E-4,5C000000,-0724,0974,10687,028.3,045.3,0.394,744.8,01.17,0.508
2013-12-07 02:17:00,6705E-4,5C000000,-0724,0973,10729,028.3,045.4,0.394,744.9,01.17,0.508
2013-12-07 02:18:00,6535E-4,5C000000,-0724,0973,10707,028.3,045.4,0.394,745.0,01.17,0.508
2013-12-07 02:19:00,6736E-4,5C000000,-0724,0973,10677,028.3,045.3,0.395,744.9,01.17,0.508
2013-12-07 02:20:00,6678E-4,5C000000,-0724,0973,10893,028.3,045.4,0.394,744.9,01.17,0.508
2013-12-07 02:21:00,6529E-4,5C000000,-0724,0974,10828,028.3,045.4,0.394,744.9,01.17,0.508
2013-12-07 02:22:00,6600E-4,5C000000,-0724,0974,10762,028.3,045.4,0.395,744.9,01.17,0.508
2013-12-07 02:23:00,6291E-4,5C000000,-0724,0974,10910,028.3,045.4,0.394,744.9,01.17,0.508
2013-12-07 02:24:00,7341E-4,5C000000,-0724,0974,10718,028.3,045.4,0.394,744.6,01.17,0.508
2013-12-07 02:25:00,5930E-4,5C000000,-0724,0973,10855,028.3,045.3,0.394,744.7,01.17,0.508
2013-12-07 02:26:00,6337E-4,5C000000,-0724,0973,10856,028.3,045.4,0.394,744.8,01.17,0.508
2013-12-07 02:27:00,6242E-4,5C000000,-0724,0973,10878,028.3,045.4,0.394,744.9,01.17,0.508
2013-12-07 02:28:00,6943E-4,5C000000,-0724,0973,10715,028.3,045.4,0.394,744.7,01.17,0.508
2013-12-07 02:29:00,5813E-4,5C000000,-0724,0973,10798,028.4,045.4,0.394,744.8,01.17,0.508
2013-12-07 02:30:00,5745E-4,5C000000,-0724,0973,10842,028.3,045.4,0.394,744.9,01.17,0.508
2013-12-07 02:31:00,6240E-4,5C000000,-0724,0973,10752,028.3,045.4,0.394,744.7,01.17,0.508
2013-12-07 02:32:00,6417E-4,5C000000,-0724,0973,10840,028.3,045.4,0.394,744.8,01.17,0.508
2013-12-07 02:33:00,7049E-4,5C000000,-0724,0973,10856,028.3,045.4,0.394,744.9,01.17,0.508
2013-12-07 02:34:00,6664E-4,5C000000,-0724,0972,10667,028.3,045.3,0.395,744.9,01.17,0.508
2013-12-07 02:35:00,6547E-4,5C000000,-0724,0973,10808,028.3,045.3,0.394,744.9,01.17,0.508
2013-12-07 02:36:00,5879E-4,5C000000,-0724,0973,10835,028.3,045.4,0.394,744.9,01.17,0.508
2013-12-07 02:37:00,5676E-4,5C000000,-0724,0974,10762,028.3,045.4,0.395,744.9,01.17,0.508
2013-12-07 02:38:00,6741E-4,5C000000,-0724,0973,10798,028.3,045.4,0.394,744.9,01.17,0.508
2013-12-07 02:39:00,7199E-4,5C000000,-0724,0974,10809,028.3,045.3,0.394,744.7,01.17,0.508
2013-12-07 02:40:00,7463E-4,5C000000,-0724,0973,10624,028.3,045.3,0.395,744.7,01.17,0.508
2013-12-07 02:41:00,6466E-4,5C000000,-0724,0973,10712,028.3,045.3,0.394,744.8,01.17,0.508
2013-12-07 02:42:00,5792E-4,5C000000,-0724,0973,10714,028.3,045.4,0.394,744.9,01.17,0.508
2013-12-07 02:43:00,5901E-4,5C000000,-0724,0974,10883,028.3,045.4,0.394,744.7,01.17,0.508
2013-12-07 02:44:00,6166E-4,5C000000,-0724,0974,10785,028.3,045.3,0.394,744.9,01.17,0.508
2013-12-07 02:45:00,5904E-4,5C000000,-0724,0973,10695,028.3,045.4,0.394,744.9,01.17,0.508
2013-12-07 02:46:00,6599E-4,5C000000,-0724,0974,10729,028.3,045.4,0.394,744.8,01.17,0.508
2013-12-07 02:47:00,5462E-4,5C000000,-0724,0973,10752,028.3,045.4,0.394,744.9,01.17,0.508
2013-12-07 02:48:00,4950E-4,5C000000,-0724,0973,10803,028.3,045.4,0.394,744.9,01.17,0.508
2013-12-07 02:49:00,5141E-4,5C000000,-0724,0973,10853,028.3,045.3,0.395,744.9,01.17,0.508
2013-12-07 02:50:00,6536E-4,5C000000,-0724,0973,10984,028.3,045.4,0.394,744.9,01.17,0.508
2013-12-07 02:51:00,5560E-4,5C000000,-0724,0973,10715,028.3,045.4,0.394,744.9,01.17,0.508
2013-12-07 02:52:00,6376E-4,5C000000,-0724,0974,10772,028.3,045.4,0.395,744.9,01.17,0.508
2013-12-07 02:53:00,5789E-4,5C000000,-0724,0973,10803,028.3,045.4,0.394,744.9,01.17,0.508
2013-12-07 02:54:00,5122E-4,5C000000,-0724,0973,10675,028.3,045.3,0.394,744.7,01.17,0.508
2013-12-07 02:55:00,6241E-4,5C000000,-0724,0974,10927,028.3,045.3,0.395,744.8,01.17,0.508
2013-12-07 02:56:00,5235E-4,5C000000,-0724,0974,10735,028.3,045.4,0.394,744.9,01.17,0.508
2013-12-07 02:57:00,6486E-4,5C000000,-0724,0972,10767,028.3,045.4,0.394,744.7,01.17,0.508
2013-12-07 02:58:00,5740E-4,5C000000,-0724,0973,10793,028.3,045.4,0.394,744.8,01.17,0.508
2013-12-07 02:59:00,5662E-4,5C000000,-0724,0973,10786,028.3,045.4,0.394,744.9,01.17,0.508
2013-12-07 03:00:00,6101E-4,5C000000,-0724,0973,10916,028.3,045.3,0.394,744.9,01.17,0.508
2013-12-07 03:01:00,6833E-4,5C000000,-0724,0974,10698,028.3,045.3,0.394,744.8,01.17,0.508
2013-12-07 03:02:00,6156E-4,5C000000,-0724,0973,10865,028.3,045.3,0.394,744.9,01.17,0.508
2013-12-07 03:03:00,5790E-4,5C000000,-0724,0974,10758,028.3,045.3,0.394,744.9,01.17,0.508
2013-12-07 03:04:00,5664E-4,5C000000,-0724,0972,10830,028.3,045.3,0.395,744.9,01.17,0.508
2013-12-07 03:05:00,6614E-4,5C000000,-0724,0973,10971,028.3,045.4,0.394,744.9,01.17,0.508
2013-12-07 03:06:00,5788E-4,5C000000,-0724,0973,10857,028.2,045.4,0.394,744.9,01.17,0.508
2013-12-07 03:07:00,6151E-4,5C000000,-0724,0974,10639,028.3,045.4,0.395,744.9,01.17,0.508
2013-12-07 03:08:00,5689E-4,5C000000,-0724,0973,10584,028.3,045.4,0.394,744.9,01.17,0.508
2013-12-07 03:09:00,6490E-4,5C000000,-0724,0973,10719,028.3,045.4,0.394,744.7,01.17,0.508
2013-12-07 03:10:00,7723E-4,5C000000,-0724,0973,10899,028.3,045.4,0.395,744.8,01.17,0.508
2013-12-07 03:11:00,7103E-4,5C000000,-0724,0973,10732,028.3,045.3,0.394,744.9,01.17,0.508
2013-12-07 03:12:00,5690E-4,5C000000,-0724,0974,10878,028.3,045.4,0.394,744.6,01.17,0.508
2013-12-07 03:13:00,6663E-4,5C000000,-0724,0973,10686,028.3,045.4,0.394,744.7,01.17,0.508
2013-12-07 03:14:00,6896E-4,5C000000,-0724,0972,10800,028.3,045.4,0.394,744.8,01.17,0.508
2013-12-07 03:15:00,6373E-4,5C000000,-0724,0973,10741,028.3,045.3,0.394,744.8,01.17,0.508
2013-12-07 03:16:00,7654E-4,5C000000,-0724,0972,10839,028.3,045.4,0.395,744.8,01.17,0.508
2013-12-07 03:17:00,6191E-4,5C000000,-0724,0972,10686,028.3,045.3,0.394,744.8,01.17,0.508
2013-12-07 03:18:00,6475E-4,5C000000,-0724,0972,10830,028.3,045.4,0.394,744.8,01.17,0.508
2013-12-07 03:19:00,5684E-4,5C000000,-0724,0973,10864,028.3,045.4,0.395,744.8,01.17,0.508
2013-12-07 03:20:00,6022E-4,5C000000,-0724,0973,10733,028.3,045.4,0.394,744.8,01.17,0.508
2013-12-07 03:21:00,5865E-4,5C000000,-0724,0972,10701,028.3,045.4,0.394,744.8,01.17,0.508
2013-12-07 03:22:00,6306E-4,5C000000,-0724,0973,10752,028.3,045.4,0.394,744.6,01.17,0.508
2013-12-07 03:23:00,5135E-4,5C000000,-0724,0973,10824,028.3,045.4,0.394,744.7,01.17,0.508
2013-12-07 03:24:00,5874E-4,5C000000,-0724,0973,10872,028.3,045.4,0.394,744.8,01.17,0.508
2013-12-07 03:25:00,6105E-4,5C000000,-0724,0974,10884,028.2,045.4,0.395,744.9,01.17,0.508
2013-12-07 03:26:00,4974E-4,5C000000,-0724,0973,10788,028.2,045.4,0.394,744.7,01.17,0.508
2013-12-07 03:27:00,6459E-4,5C000000,-0724,0973,10895,028.3,045.4,0.394,744.8,01.17,0.508
2013-12-07 03:28:00,6413E-4,5C000000,-0724,0973,10773,028.3,045.4,0.395,744.9,01.17,0.508
2013-12-07 03:29:00,5762E-4,5C000000,-0724,0973,10694,028.2,045.4,0.394,744.7,01.17,0.508
2013-12-07 03:30:00,5855E-4,5C000000,-0724,0972,10875,028.2,045.4,0.394,744.8,01.17,0.508
2013-12-07 03:31:00,6720E-4,5C000000,-0724,0973,10873,028.3,045.4,0.395,744.9,01.17,0.508
2013-12-07 03:32:00,6602E-4,5C000000,-0724,0973,10840,028.3,045.4,0.394,744.9,01.17,0.508
2013-12-07 03:33:00,6119E-4,5C000000,-0724,0972,10789,028.2,045.4,0.394,744.9,01.17,0.508
2013-12-07 03:34:00,7006E-4,5C000000,-0724,0973,10714,028.3,045.4,0.395,744.9,01.17,0.508
2013-12-07 03:35:00,6249E-4,5C000000,-0724,0973,10855,028.2,045.3,0.394,744.9,01.17,0.508
2013-12-07 03:36:00,6172E-4,5C000000,-0724,0973,10833,028.2,045.4,0.394,744.9,01.17,0.508
2013-12-07 03:37:00,5831E-4,5C000000,-0724,0973,10845,028.2,045.3,0.395,744.7,01.17,0.508
2013-12-07 03:38:00,7285E-4,5C000000,-0724,0973,10883,028.2,045.4,0.394,744.8,01.17,0.508
2013-12-07 03:39:00,4931E-4,5C000000,-0724,0972,10758,028.2,045.3,0.394,744.9,01.17,0.508
2013-12-07 03:40:00,4795E-4,5C000000,-0724,0972,10856,028.2,045.3,0.395,744.7,01.17,0.508
2013-12-07 03:41:00,5141E-4,5C000000,-0724,0973,10740,028.2,045.4,0.394,744.7,01.17,0.508
2013-12-07 03:42:00,5563E-4,5C000000,-0724,0974,10768,028.3,045.3,0.394,744.8,01.17,0.508
2013-12-07 03:43:00,5218E-4,5C000000,-0724,0973,10862,028.2,045.4,0.395,744.8,01.17,0.508
2013-12-07 03:44:00,5605E-4,5C000000,-0724,0973,10792,028.3,045.4,0.394,744.8,01.17,0.508
2013-12-07 03:45:00,5189E-4,5C000000,-0724,0973,10922,028.2,045.3,0.394,744.8,01.17,0.508
2013-12-07 03:46:00,4546E-4,5C000000,-0724,0973,10701,028.2,045.3,0.395,744.9,01.17,0.508
2013-12-07 03:47:00,4403E-4,5C000000,-0724,0972,10811,028.2,045.4,0.394,744.9,01.17,0.508
2013-12-07 03:48:00,3965E-4,5C000000,-0724,0973,10785,028.2,045.4,0.394,744.9,01.17,0.508
2013-12-07 03:49:00,4262E-4,5C000000,-0724,0973,10773,028.2,045.4,0.395,744.9,01.17,0.508
2013-12-07 03:50:00,5443E-4,5C000000,-0724,0973,10830,028.2,045.4,0.394,744.7,01.17,0.508
2013-12-07 03:51:00,4569E-4,5C000000,-0724,0973,10518,028.2,045.3,0.394,744.7,01.17,0.508
2013-12-07 03:52:00,5260E-4,5C000000,-0724,0973,10804,028.2,045.4,0.395,744.9,01.17,0.508
2013-12-07 03:53:00,5128E-4,5C000000,-0724,0973,10638,028.2,045.4,0.394,744.9,01.17,0.508
2013-12-07 03:54:00,6263E-4,5C000000,-0724,0973,10862,028.2,045.4,0.394,744.7,01.17,0.508
2013-12-07 03:55:00,6490E-4,5C000000,-0724,0972,10774,028.2,045.3,0.394,744.9,01.17,0.508
2013-12-07 03:56:00,5998E-4,5C000000,-0724,0972,10714,028.2,045.3,0.394,744.9,01.17,0.508
2013-12-07 03:57:00,6172E-4,5C000000,-0724,0973,10817,028.2,045.4,0.395,744.8,01.17,0.508
2013-12-07 03:58:00,5475E-4,5C000000,-0724,0973,10815,028.2,045.4,0.394,744.9,01.17,0.508
2013-12-07 03:59:00,5799E-4,5C000000,-0724,0973,10810,028.2,045.4,0.394,744.9,01.17,0.508
2013-12-07 04:00:00,5369E-4,5C000000,-0724,0974,10847,028.2,045.4,0.395,744.9,01.17,0.508
2013-12-07 04:01:00,5305E-4,5C000000,-0724,0974,10765,028.2,045.4,0.394,744.9,01.17,0.508
2013-12-07 04:02:00,4308E-4,5C000000,-0724,0973,10797,028.2,045.4,0.394,744.9,01.17,0.508
2013-12-07 04:03:00,4541E-4,5C000000,-0724,0972,10884,028.2,045.4,0.395,744.9,01.17,0.508
2013-12-07 04:04:00,3945E-4,5C000000,-0724,0974,10612,028.2,045.4,0.394,744.9,01.17,0.508
2013-12-07 04:05:00,4620E-4,5C000000,-0724,0973,10787,028.2,045.4,0.394,744.7,01.17,0.508
2013-12-07 04:06:00,5117E-4,5C000000,-0724,0973,10819,028.2,045.4,0.395,744.7,01.17,0.508
2013-12-07 04:07:00,4221E-4,5C000000,-0724,0973,10696,028.2,045.3,0.394,744.8,01.17,0.508
2013-12-07 04:08:00,4709E-4,5C000000,-0724,0972,10850,028.2,045.3,0.395,744.8,01.17,0.508
2013-12-07 04:09:00,3729E-4,5C000000,-0724,0973,10771,028.2,045.4,0.395,744.7,01.17,0.508
2013-12-07 04:10:00,4193E-4,5C000000,-0724,0973,10854,028.2,045.3,0.394,744.8,01.17,0.508
2013-12-07 04:11:00,4697E-4,5C000000,-0724,0972,10779,028.2,045.3,0.395,744.8,01.17,0.508
2013-12-07 04:12:00,3841E-4,5C000000,-0724,0973,10692,028.2,045.4,0.394,744.7,01.17,0.508
2013-12-07 04:13:00,4730E-4,5C000000,-0724,0972,10816,028.2,045.4,0.394,744.7,01.17,0.508
2013-12-07 04:14:00,6088E-4,5C000000,-0724,0974,10777,028.2,045.4,0.395,744.8,01.17,0.508
2013-12-07 04:15:00,4037E-4,5C000000,-0724,0974,10858,028.2,045.4,0.394,744.7,01.17,0.508
2013-12-07 04:16:00,4507E-4,5C000000,-0724,0973,10794,028.2,045.3,0.394,744.8,01.17,0.508
2013-12-07 04:17:00,5213E-4,5C000000,-0724,0973,10702,028.2,045.3,0.395,744.8,01.17,0.508
2013-12-07 04:18:00,5682E-4,5C000000,-0724,0973,10898,028.2,045.4,0.394,744.7,01.17,0.508
2013-12-07 04:19:00,4674E-4,5C000000,-0724,0972,10615,028.2,045.4,0.394,744.5,01.17,0.508
2013-12-07 04:20:00,5785E-4,5C000000,-0724,0973,10781,028.2,045.3,0.395,744.6,01.17,0.508